Weather History for La Porte, IN

Change the Weather History Date:

Monday, September 2, 2013

  Actual Average (KVPZ) Record (KVPZ)
Temperature  
Mean Temperature 66 °F 68 °F  
Max Temperature 74 °F 79 °F 95 °F (2011)
Min Temperature 60 °F 58 °F 48 °F (2001)
Degree Days  
Heating Degree Days 0 1  
Month to date heating degree days 2  
Since 1 July heating degree days 19  
Cooling Degree Days 2 4  
Month to date cooling degree days 8  
Year to date cooling degree days 644  
Growing Degree Days 16 (Base 50)    
Moisture  
Dew Point 62 °F    
Average Humidity 80    
Maximum Humidity 100    
Minimum Humidity 61    
Precipitation  
Precipitation 0.00 in 0.13 in 0.97 in (2010)
Month to date precipitation 0.28  
Year to date precipitation 25.82  
Sea Level Pressure  
Sea Level Pressure 29.91 in    
Wind  
Wind Speed 9 mph (North)    
Max Wind Speed 16 mph    
Max Gust Speed 25 mph    
Visibility 10 miles    
Events      
T = Trace of Precipitation, MM = Missing Value Source: NWS Daily Summary

Daily Weather History Graph

Daily Weather History Graph

Search for Another Location

Airport:

Trip Planner

Search our weather history database for the weather conditions in past years. The results will help you decide how hot, cold, wet, or windy it might be!

Date:

Astronomy

Sep. 02, 2013 Rise Set
Actual Time 6:14 AM CDT 7:17 PM CDT
Civil Twilight 5:45 AM CDT 7:46 PM CDT
Nautical Twilight 5:11 AM CDT 8:20 PM CDT
Astronomical Twilight 4:36 AM CDT 8:55 PM CDT
Moon 3:29 AM CDT (9/2) 5:32 PM CDT (9/2)
Length of Visible Light 14h 00m
Length of Day
13h 03m
Waning Crescent, 8% of the Moon is Illuminated
Sep 2
Waning Crescent
Sep 5
New
Sep 12
First Quarter
Sep 19
Full
Sep 26
Last Quarter

Hourly Weather History & Observations

Time (CDT) Temp. Dew Point Humidity Pressure Visibility Wind Dir Wind Speed Gust Speed Precip Events Conditions
12:15 AM 71.2 °F 68.9 °F 92% 29.79 in 10.0 mi NW 6.9 mph - N/A   Scattered Clouds
12:35 AM 70.7 °F 68.9 °F 94% 29.79 in 10.0 mi NW 10.4 mph - N/A   Scattered Clouds
12:55 AM 70.2 °F 69.3 °F 97% 29.79 in 10.0 mi NW 9.2 mph - N/A   Clear
1:15 AM 70.0 °F 69.3 °F 98% 29.79 in 10.0 mi NNW 9.2 mph - N/A   Scattered Clouds
1:35 AM 69.8 °F 69.4 °F 99% 29.79 in 10.0 mi NNW 8.1 mph - N/A   Scattered Clouds
1:55 AM 69.8 °F 69.8 °F 100% 29.80 in 10.0 mi NNW 4.6 mph - N/A   Scattered Clouds
2:15 AM 69.6 °F 69.6 °F 100% 29.80 in 10.0 mi North 6.9 mph - N/A   Scattered Clouds
2:35 AM 69.1 °F 69.1 °F 100% 29.80 in 10.0 mi North 6.9 mph - N/A   Clear
2:55 AM 68.9 °F 68.9 °F 100% 29.80 in 10.0 mi North 6.9 mph - N/A   Clear
3:15 AM 68.5 °F 68.5 °F 100% 29.81 in 10.0 mi North 6.9 mph - N/A   Clear
3:35 AM 68.5 °F 68.5 °F 100% 29.81 in 10.0 mi North 6.9 mph - N/A   Scattered Clouds
3:55 AM 68.4 °F 68.4 °F 100% 29.81 in 10.0 mi North 8.1 mph - N/A   Scattered Clouds
4:15 AM 68.2 °F 68.2 °F 100% 29.82 in 10.0 mi North 6.9 mph - N/A   Scattered Clouds
4:35 AM 67.5 °F 67.5 °F 100% 29.82 in 10.0 mi North 5.8 mph - N/A   Scattered Clouds
4:55 AM 67.1 °F 67.1 °F 100% 29.82 in 10.0 mi North 4.6 mph - N/A   Scattered Clouds
5:15 AM 66.2 °F 66.2 °F 100% 29.83 in 10.0 mi NNW 4.6 mph - N/A   Scattered Clouds
5:35 AM 65.1 °F 65.1 °F 100% 29.84 in 10.0 mi North 3.5 mph - N/A   Scattered Clouds
5:55 AM 65.7 °F 65.7 °F 100% 29.85 in 10.0 mi North 4.6 mph - N/A   Scattered Clouds
6:15 AM 66.6 °F 66.6 °F 100% 29.85 in 10.0 mi North 5.8 mph - N/A   Clear
6:35 AM 66.4 °F 66.4 °F 100% 29.86 in 10.0 mi North 6.9 mph - N/A   Clear
6:55 AM 66.7 °F 66.2 °F 98% 29.87 in 10.0 mi North 6.9 mph - N/A   Clear
7:15 AM 67.3 °F 64.9 °F 92% 29.88 in 10.0 mi North 6.9 mph - N/A   Clear
7:35 AM 67.6 °F 64.9 °F 91% 29.89 in 10.0 mi North 8.1 mph - N/A   Clear
7:55 AM 68.2 °F 65.1 °F 90% 29.90 in 10.0 mi North 8.1 mph - N/A   Clear
8:15 AM 68.0 °F 63.7 °F 86% 29.91 in 10.0 mi North 11.5 mph 17.3 mph N/A   Scattered Clouds
8:35 AM 67.6 °F 63.9 °F 88% 29.91 in 10.0 mi North 13.8 mph - N/A   Scattered Clouds
8:55 AM 68.9 °F 62.6 °F 80% 29.91 in 10.0 mi NNE 8.1 mph - N/A   Scattered Clouds
9:15 AM 70.3 °F 60.4 °F 71% 29.92 in 10.0 mi NNE 11.5 mph - N/A   Clear
9:35 AM 71.1 °F 59.9 °F 68% 29.92 in 10.0 mi North 13.8 mph - N/A   Clear
9:55 AM 71.8 °F 60.1 °F 67% 29.93 in 10.0 mi North 9.2 mph - N/A   Clear
10:15 AM 72.3 °F 60.4 °F 66% 29.93 in 10.0 mi North 8.1 mph 21.9 mph N/A   Clear
10:35 AM 73.2 °F 62.2 °F 68% 29.93 in 10.0 mi NNW 12.7 mph 20.7 mph N/A   Clear
10:55 AM 72.1 °F 60.4 °F 67% 29.94 in 10.0 mi NNW 11.5 mph 25.3 mph N/A   Clear
11:15 AM 72.1 °F 61.3 °F 69% 29.94 in 10.0 mi North 3.5 mph 21.9 mph N/A   Scattered Clouds
11:35 AM 73.4 °F 61.2 °F 65% 29.94 in 10.0 mi North 8.1 mph - N/A   Scattered Clouds
11:55 AM 73.4 °F 60.8 °F 65% 29.94 in 10.0 mi NNW 8.1 mph - N/A   Scattered Clouds
12:15 PM 73.4 °F 60.1 °F 63% 29.94 in 10.0 mi NNW 8.1 mph - N/A   Scattered Clouds
12:35 PM 73.4 °F 60.4 °F 64% 29.94 in 10.0 mi North 9.2 mph - N/A   Scattered Clouds
12:55 PM 73.4 °F 60.4 °F 64% 29.94 in 10.0 mi North 8.1 mph - N/A   Scattered Clouds
1:15 PM 73.4 °F 60.1 °F 63% 29.94 in 10.0 mi North 11.5 mph 16.1 mph N/A   Scattered Clouds
1:35 PM 73.8 °F 59.9 °F 62% 29.94 in 10.0 mi North 12.7 mph - N/A   Scattered Clouds
1:55 PM 73.6 °F 60.4 °F 63% 29.94 in 10.0 mi North 10.4 mph - N/A   Scattered Clouds
2:15 PM 73.9 °F 60.1 °F 62% 29.94 in 10.0 mi NNW 12.7 mph 19.6 mph N/A   Scattered Clouds
2:35 PM 73.0 °F 59.5 °F 62% 29.94 in 10.0 mi NNW 9.2 mph - N/A   Scattered Clouds
2:55 PM 73.6 °F 59.7 °F 62% 29.93 in 10.0 mi NNW 6.9 mph - N/A   Clear
3:15 PM 72.9 °F 58.8 °F 61% 29.93 in 10.0 mi NNW 12.7 mph - N/A   Scattered Clouds
3:35 PM 73.4 °F 61.0 °F 65% 29.94 in 10.0 mi North 15.0 mph - N/A   Scattered Clouds
3:55 PM 71.2 °F 60.6 °F 69% 29.94 in 10.0 mi North 13.8 mph 19.6 mph N/A   Scattered Clouds
4:15 PM 72.0 °F 60.1 °F 66% 29.93 in 10.0 mi North 12.7 mph - N/A   Scattered Clouds
4:35 PM 70.3 °F 60.4 °F 71% 29.93 in 10.0 mi North 13.8 mph - N/A   Scattered Clouds
4:55 PM 70.0 °F 60.1 °F 71% 29.94 in 10.0 mi North 16.1 mph - N/A   Scattered Clouds
5:15 PM 68.5 °F 59.9 °F 74% 29.94 in 10.0 mi North 15.0 mph 18.4 mph N/A   Scattered Clouds
5:35 PM 67.6 °F 58.8 °F 73% 29.94 in 10.0 mi North 15.0 mph - N/A   Scattered Clouds
5:55 PM 66.2 °F 58.5 °F 76% 29.94 in 10.0 mi North 12.7 mph - N/A   Scattered Clouds
6:15 PM 65.8 °F 58.5 °F 77% 29.94 in 10.0 mi NNE 13.8 mph 17.3 mph N/A   Mostly Cloudy
6:35 PM 64.6 °F 58.1 °F 79% 29.94 in 10.0 mi North 12.7 mph 20.7 mph N/A   Scattered Clouds
6:55 PM 64.4 °F 57.6 °F 78% 29.95 in 10.0 mi North 12.7 mph 18.4 mph N/A   Scattered Clouds
7:15 PM 64.0 °F 57.2 °F 78% 29.95 in 10.0 mi North 10.4 mph - N/A   Mostly Cloudy
7:35 PM 64.0 °F 56.7 °F 77% 29.96 in 10.0 mi North 8.1 mph - N/A   Overcast
7:55 PM 63.9 °F 56.5 °F 77% 29.96 in 10.0 mi North 10.4 mph - N/A   Overcast
8:15 PM 63.7 °F 56.5 °F 77% 29.97 in 10.0 mi North 10.4 mph - N/A   Overcast
8:35 PM 63.5 °F 56.3 °F 77% 29.98 in 10.0 mi North 9.2 mph - N/A   Overcast
8:55 PM 63.5 °F 56.1 °F 77% 29.98 in 10.0 mi North 9.2 mph - N/A   Overcast
9:15 PM 63.3 °F 55.8 °F 76% 29.98 in 10.0 mi North 8.1 mph - N/A   Overcast
9:35 PM 62.8 °F 55.4 °F 77% 29.98 in 10.0 mi North 10.4 mph - N/A   Overcast
9:55 PM 63.0 °F 54.5 °F 74% 29.99 in 10.0 mi NNE 9.2 mph - N/A   Overcast
10:15 PM 62.6 °F 54.5 °F 75% 29.99 in 10.0 mi NNE 8.1 mph - N/A   Overcast
10:35 PM 62.6 °F 54.0 °F 73% 29.99 in 10.0 mi NNE 9.2 mph - N/A   Overcast
10:55 PM 61.7 °F 54.0 °F 76% 29.99 in 10.0 mi NNE 5.8 mph - N/A   Overcast
11:15 PM 61.0 °F 54.0 °F 78% 29.99 in 10.0 mi NNE 4.6 mph - N/A   Overcast
11:35 PM 60.8 °F 54.5 °F 80% 29.99 in 10.0 mi Calm Calm - N/A   Overcast
11:55 PM 60.8 °F 56.3 °F 85% 29.99 in 10.0 mi Calm Calm - N/A   Overcast